AIC2242 FIMP-VABB

Flight info

Callsign AIC2242
Flight time N/A
Altitude 35000
Route TIDUM1C TIDUM UT475 MURUS A474 ERVIS KETOR2A
Aircraft A21N/M-SDE2E3FGHIRWXY/LB1

Departure

Time 2026-04-30 09:51
Airport Sir Seewoosagur Ramgoolam International Airport (FIMP)

Arrival

Time N/A
Airport Chhatrapati Shivaji Maharaj International Airport (VABB)
Time Latitude Longitude Altitude Speed Heading
2026-04-30 09:31 -20.43166 57.67850 202 ft 0 kts 212°
2026-04-30 09:41 -20.43156 57.67857 207 ft 4 kts 212°
2026-04-30 09:42 -20.43133 57.67872 192 ft 4 kts 212°
2026-04-30 09:42 -20.43114 57.67885 197 ft 4 kts 225°
2026-04-30 09:42 -20.43102 57.67908 200 ft 4 kts 267°
2026-04-30 09:42 -20.43107 57.67934 195 ft 4 kts 298°
2026-04-30 09:43 -20.43116 57.67948 192 ft 0 kts 308°
2026-04-30 09:45 -20.43104 57.67932 194 ft 4 kts 303°
2026-04-30 09:45 -20.43083 57.67896 202 ft 7 kts 297°
2026-04-30 09:45 -20.43057 57.67840 202 ft 10 kts 295°
2026-04-30 09:46 -20.43025 57.67771 193 ft 11 kts 299°
2026-04-30 09:46 -20.42986 57.67694 191 ft 13 kts 298°
2026-04-30 09:46 -20.42919 57.67629 204 ft 14 kts 330°
2026-04-30 09:46 -20.42830 57.67573 197 ft 15 kts 324°
2026-04-30 09:47 -20.42777 57.67530 192 ft 9 kts 322°
2026-04-30 09:47 -20.42722 57.67486 204 ft 11 kts 326°
2026-04-30 09:47 -20.42642 57.67459 196 ft 13 kts 343°
2026-04-30 09:47 -20.42565 57.67404 199 ft 15 kts 300°
2026-04-30 09:48 -20.42517 57.67302 211 ft 16 kts 296°
2026-04-30 09:48 -20.42465 57.67191 208 ft 14 kts 297°
2026-04-30 09:48 -20.42431 57.67100 208 ft 14 kts 269°
2026-04-30 09:48 -20.42436 57.66994 215 ft 12 kts 269°
2026-04-30 09:49 -20.42406 57.66925 216 ft 8 kts 320°
2026-04-30 09:49 -20.42350 57.66935 217 ft 10 kts 63°
2026-04-30 09:49 -20.42372 57.67000 211 ft 6 kts 118°
2026-04-30 09:49 -20.42374 57.67005 210 ft 0 kts 117°
2026-04-30 09:50 -20.42431 57.67123 210 ft 53 kts 117°
2026-04-30 09:50 -20.42719 57.67723 200 ft 124 kts 117°
2026-04-30 09:50 -20.43029 57.68363 186 ft 161 kts 118°
2026-04-30 09:51 -20.43570 57.69455 679 ft 164 kts 117°
2026-04-30 09:51 -20.44097 57.70520 1308 ft 168 kts 117°
2026-04-30 09:51 -20.44648 57.71673 1797 ft 180 kts 117°
2026-04-30 09:51 -20.45245 57.72906 2314 ft 193 kts 117°
2026-04-30 09:52 -20.45884 57.74230 2824 ft 207 kts 117°
2026-04-30 09:52 -20.46385 57.75702 3284 ft 224 kts 96°
2026-04-30 09:52 -20.46136 57.77416 3562 ft 250 kts 64°
2026-04-30 09:52 -20.44946 57.78828 4001 ft 266 kts 32°
2026-04-30 09:53 -20.43254 57.79689 4690 ft 272 kts 24°
2026-04-30 09:53 -20.41493 57.80487 5470 ft 275 kts 24°
2026-04-30 09:53 -20.39734 57.81313 6227 ft 278 kts 25°
2026-04-30 09:53 -20.37988 57.82162 6919 ft 281 kts 25°
2026-04-30 09:54 -20.36199 57.83047 7621 ft 285 kts 25°
2026-04-30 09:54 -20.34390 57.83950 8291 ft 290 kts 26°
2026-04-30 09:54 -20.32549 57.84877 8723 ft 292 kts 26°
2026-04-30 09:54 -20.30702 57.85809 8878 ft 293 kts 26°
2026-04-30 09:55 -20.28860 57.86750 9016 ft 293 kts 27°
2026-04-30 09:55 -20.27053 57.87720 9594 ft 296 kts 27°
2026-04-30 09:55 -20.25199 57.88719 10289 ft 299 kts 27°
2026-04-30 09:55 -20.23236 57.89547 10805 ft 310 kts 14°
2026-04-30 09:56 -20.21031 57.89761 11098 ft 329 kts 355°
2026-04-30 09:56 -20.18764 57.89158 11341 ft 346 kts 335°
2026-04-30 09:56 -20.16749 57.87671 11571 ft 362 kts 314°
2026-04-30 09:56 -20.15094 57.85585 11904 ft 373 kts 307°
2026-04-30 09:57 -20.13502 57.83423 12450 ft 378 kts 307°
2026-04-30 09:57 -20.11851 57.81225 13035 ft 381 kts 308°
2026-04-30 09:57 -20.10175 57.79026 13586 ft 385 kts 308°
2026-04-30 09:57 -20.08457 57.76806 14119 ft 389 kts 308°
2026-04-30 09:58 -20.06724 57.74580 14630 ft 393 kts 308°
2026-04-30 09:58 -20.04970 57.72328 15133 ft 396 kts 308°
2026-04-30 09:58 -20.03196 57.70059 15628 ft 400 kts 308°
2026-04-30 09:58 -20.01429 57.67813 16098 ft 403 kts 308°
2026-04-30 09:59 -19.97784 57.63198 16968 ft 410 kts 309°
2026-04-30 09:59 -19.94098 57.58480 17829 ft 417 kts 308°
2026-04-30 10:00 -19.90325 57.53780 18663 ft 424 kts 314°
2026-04-30 10:00 -19.87945 57.51848 19081 ft 428 kts 329°
2026-04-30 10:01 -19.82241 57.50228 19880 ft 433 kts 360°
2026-04-30 10:01 -19.79216 57.50389 20288 ft 435 kts
2026-04-30 10:01 -19.76183 57.50640 20684 ft 438 kts
2026-04-30 10:02 -19.70096 57.51082 21476 ft 442 kts
2026-04-30 10:02 -19.67011 57.51275 21878 ft 444 kts
2026-04-30 10:02 -19.63915 57.51464 22259 ft 446 kts
2026-04-30 10:02 -19.60798 57.51653 22627 ft 448 kts
2026-04-30 10:03 -19.57678 57.51847 22989 ft 450 kts
2026-04-30 10:03 -19.54576 57.52044 23322 ft 452 kts
2026-04-30 10:03 -19.51424 57.52247 23657 ft 455 kts
2026-04-30 10:03 -19.48255 57.52451 23965 ft 456 kts
2026-04-30 10:04 -19.45071 57.52652 24258 ft 458 kts
2026-04-30 10:04 -19.41875 57.52850 24526 ft 460 kts
2026-04-30 10:04 -19.38661 57.53052 24799 ft 462 kts
2026-04-30 10:04 -19.35471 57.53251 25063 ft 464 kts
2026-04-30 10:05 -19.32236 57.53455 25314 ft 467 kts
2026-04-30 10:05 -19.28982 57.53658 25583 ft 469 kts
2026-04-30 10:05 -19.25707 57.53863 25843 ft 471 kts
2026-04-30 10:05 -19.22419 57.54068 26123 ft 472 kts
2026-04-30 10:06 -19.19127 57.54278 26370 ft 474 kts
2026-04-30 10:06 -19.15855 57.54487 26613 ft 476 kts
2026-04-30 10:06 -19.12533 57.54691 26849 ft 478 kts
2026-04-30 10:06 -19.09208 57.54899 27086 ft 479 kts
2026-04-30 10:07 -19.05870 57.55105 27321 ft 480 kts
2026-04-30 10:07 -19.02518 57.55309 27540 ft 482 kts
2026-04-30 10:07 -18.99157 57.55517 27766 ft 484 kts
2026-04-30 10:07 -18.95832 57.55726 27978 ft 486 kts
2026-04-30 10:08 -18.92450 57.55940 28196 ft 487 kts
2026-04-30 10:08 -18.89049 57.56150 28414 ft 488 kts
2026-04-30 10:08 -18.85639 57.56365 28673 ft 488 kts
2026-04-30 10:08 -18.82292 57.56573 28965 ft 487 kts
2026-04-30 10:09 -18.78906 57.56784 29249 ft 486 kts
2026-04-30 10:09 -18.75533 57.56991 29520 ft 485 kts
2026-04-30 10:09 -18.72151 57.57204 29819 ft 484 kts
2026-04-30 10:09 -18.68786 57.57410 30111 ft 483 kts
2026-04-30 10:10 -18.65475 57.57617 30403 ft 482 kts
2026-04-30 10:10 -18.62124 57.57824 30689 ft 481 kts
2026-04-30 10:10 -18.58787 57.58026 30938 ft 480 kts
2026-04-30 10:10 -18.55444 57.58231 31194 ft 480 kts
2026-04-30 10:11 -18.52116 57.58438 31470 ft 479 kts
2026-04-30 10:11 -18.48790 57.58648 31721 ft 478 kts
2026-04-30 10:11 -18.45466 57.58860 31963 ft 478 kts
2026-04-30 10:11 -18.42138 57.59070 32212 ft 477 kts
2026-04-30 10:12 -18.38864 57.59275 32435 ft 477 kts
2026-04-30 10:12 -18.35553 57.59486 32665 ft 476 kts
2026-04-30 10:12 -18.32245 57.59691 32870 ft 475 kts
2026-04-30 10:12 -18.28941 57.59896 33033 ft 476 kts
2026-04-30 10:13 -18.25632 57.60100 33062 ft 475 kts
2026-04-30 10:13 -18.19032 57.60508 33032 ft 474 kts
2026-04-30 10:14 -18.12429 57.60918 33022 ft 474 kts
2026-04-30 10:14 -18.02570 57.61531 33018 ft 475 kts
2026-04-30 10:15 -17.95965 57.61935 33021 ft 474 kts
2026-04-30 10:15 -17.89536 57.63232 33015 ft 476 kts 20°
2026-04-30 10:16 -17.83455 57.66022 33011 ft 476 kts 24°
2026-04-30 10:17 -17.74334 57.70261 33009 ft 476 kts 23°
2026-04-30 10:17 -17.65235 57.74419 33010 ft 477 kts 23°
2026-04-30 10:18 -17.59182 57.77187 33011 ft 476 kts 23°
2026-04-30 10:19 -17.50066 57.81345 33008 ft 476 kts 23°
2026-04-30 10:19 -17.43975 57.84124 33009 ft 476 kts 23°
2026-04-30 10:20 -17.37941 57.86870 33011 ft 475 kts 23°
2026-04-30 10:20 -17.28829 57.91013 33010 ft 474 kts 23°
2026-04-30 10:21 -17.22759 57.93766 33005 ft 474 kts 23°
2026-04-30 10:21 -17.16753 57.96504 33000 ft 473 kts 23°
2026-04-30 10:22 -17.10689 57.99268 33000 ft 474 kts 23°
2026-04-30 10:22 -17.04668 58.01999 33001 ft 473 kts 23°
2026-04-30 10:23 -16.98631 58.04732 32998 ft 472 kts 23°
2026-04-30 10:23 -16.92596 58.07469 33001 ft 471 kts 23°
2026-04-30 10:24 -16.86608 58.10177 33002 ft 471 kts 23°
2026-04-30 10:24 -16.80597 58.12898 33000 ft 470 kts 23°
2026-04-30 10:25 -16.74580 58.15624 33000 ft 470 kts 23°
2026-04-30 10:25 -16.68607 58.18316 33001 ft 470 kts 23°
2026-04-30 10:26 -16.62600 58.21033 33003 ft 469 kts 23°
2026-04-30 10:26 -16.56596 58.23729 33002 ft 469 kts 23°
2026-04-30 10:27 -16.50633 58.26409 33002 ft 469 kts 24°
2026-04-30 10:27 -16.44633 58.29117 32999 ft 468 kts 24°
2026-04-30 10:28 -16.38636 58.31805 33000 ft 468 kts 24°
2026-04-30 10:28 -16.32692 58.34475 32999 ft 467 kts 24°
2026-04-30 10:29 -16.26716 58.37165 33000 ft 468 kts 24°
2026-04-30 10:29 -16.20729 58.39857 32999 ft 467 kts 23°
2026-04-30 10:30 -16.14795 58.42523 33000 ft 467 kts 23°
2026-04-30 10:30 -16.08800 58.45212 33002 ft 467 kts 24°
2026-04-30 10:31 -16.02824 58.47893 32986 ft 467 kts 24°
2026-04-30 10:31 -15.96882 58.50556 32990 ft 467 kts 24°
2026-04-30 10:32 -15.90913 58.53231 32979 ft 467 kts 23°
2026-04-30 10:32 -15.84931 58.55910 32994 ft 467 kts 23°
2026-04-30 10:33 -15.78986 58.58572 32986 ft 467 kts 23°
2026-04-30 10:33 -15.73003 58.61250 32994 ft 467 kts 23°
2026-04-30 10:34 -15.67020 58.63921 32988 ft 467 kts 23°
2026-04-30 10:34 -15.61067 58.66578 32992 ft 467 kts 23°
2026-04-30 10:35 -15.56087 58.68805 32993 ft 468 kts 23°
2026-04-30 10:35 -15.49122 58.71914 32993 ft 468 kts 23°
2026-04-30 10:36 -15.44151 58.74129 32987 ft 468 kts 23°
2026-04-30 10:36 -15.38160 58.76797 32992 ft 468 kts 22°
2026-04-30 10:37 -15.32164 58.79464 32993 ft 468 kts 23°
2026-04-30 10:37 -15.25206 58.82560 32993 ft 468 kts 23°
2026-04-30 10:38 -15.20191 58.84791 32983 ft 468 kts 22°
2026-04-30 10:38 -15.14225 58.87441 32993 ft 469 kts 22°
2026-04-30 10:39 -15.08228 58.90106 32995 ft 468 kts 22°
2026-04-30 10:39 -15.02230 58.92765 32993 ft 469 kts 22°
2026-04-30 10:40 -14.96230 58.95428 32995 ft 469 kts 22°
2026-04-30 10:40 -14.90265 58.98073 32986 ft 468 kts 22°
2026-04-30 10:41 -14.84260 59.00735 32988 ft 469 kts 22°
2026-04-30 10:41 -14.78287 59.03376 32991 ft 469 kts 22°
2026-04-30 10:42 -14.72272 59.06037 32990 ft 469 kts 22°
2026-04-30 10:42 -14.66306 59.08676 32986 ft 469 kts 22°
2026-04-30 10:43 -14.60305 59.11328 32981 ft 469 kts 22°
2026-04-30 10:43 -14.54296 59.13983 32982 ft 469 kts 22°
2026-04-30 10:44 -14.48281 59.16640 32988 ft 469 kts 22°
2026-04-30 10:44 -14.42306 59.19277 32980 ft 469 kts 22°
2026-04-30 10:45 -14.36287 59.21928 32987 ft 469 kts 22°
2026-04-30 10:45 -14.30307 59.24563 32978 ft 469 kts 22°
2026-04-30 10:46 -14.24286 59.27217 32987 ft 470 kts 22°
2026-04-30 10:46 -14.18255 59.29871 32983 ft 470 kts 22°
2026-04-30 10:47 -14.12290 59.32496 32981 ft 470 kts 22°
2026-04-30 10:47 -14.06302 59.35129 32977 ft 470 kts 22°
2026-04-30 10:48 -14.00279 59.37774 32988 ft 470 kts 22°